Terug naar catalogus

PERSAT01

ActiefWetenschapSSO
NORAD 66652·PAYLOAD·🇰🇷 South Korea
Deze satellietnaam is nog niet bevestigd door officiële bronnen.

Gelanceerd Nov 26, 2025 vanaf Naro Space Center

Loading…

Volgende Passages (komende 24 uur)

TLE

VersSource: Space-Track

Epoch: Sep 14, 2026, 02:45 UTC

1 66652U 25274C   26257.11465824  .00001828  00000-0  17937-3 0  9997
2 66652  97.7475 184.9242 0013133  65.6291 294.6298 14.93384358 43483

Volg PERSAT01 in realtime met AllMySat

Download on the App Store